EW8865 Weather Reports


time (UTC)temp
C
wind
direction
speed
KPH
gust
KPH
rain 1hr
cm
rain 24hr
cm
rain mn
cm
humidity
%
barometer
mb
20260502170503 12 48 1.6 4.8 0.43 0.84 0.84 88 1011.5
20260502164004 12 177 3.2 4.8 0.48 0.71 0.71 86 1012.0
20260502163004 12 136 1.6 3.2 0.46 0.61 0.61 85 1012.1
20260502162503 12 136 0.0 0.0 0.46 0.58 0.58 85 1012.2
20260502162004 12 136 0.0 0.0 0.46 0.56 0.56 84 1012.1
20260502161504 12 134 0.0 1.6 0.46 0.51 0.51 84 1012.2
20260502161004 13 134 0.0 1.6 0.43 0.48 0.48 83 1012.2
20260502160504 13 134 1.6 1.6 0.41 0.43 0.43 82 1012.4
20260502151504 15 117 1.6 4.8 0.05 0.05 0.05 74 1012.8
20260502151004 15 117 1.6 3.2 0.05 0.05 0.05 73 1012.7
20260502150503 15 117 0.0 1.6 0.03 0.03 0.03 70 1012.7
20260502123503 18 64 3.2 4.8 0.00 0.00 0.00 61 1014.1
20260502123004 18 215 1.6 4.8 0.00 0.00 0.00 61 1014.2
20260502122004 18 228 3.2 8.0 0.00 0.00 0.00 61 1014.4
20260502121504 18 228 3.2 9.7 0.00 0.00 0.00 60 1014.5
20260502120503 18 281 4.8 14.5 0.00 0.00 0.00 61 1014.6
20260502115003 18 123 3.2 4.8 0.00 0.00 0.00 62 1014.8
20260502114004 17 114 4.8 11.3 0.00 0.00 0.00 62 1014.9
20260502113503 17 125 4.8 11.3 0.00 0.00 0.00 63 1015.0
20260502113004 17 146 6.4 11.3 0.00 0.00 0.00 64 1015.1
20260502112504 17 95 3.2 4.8 0.00 0.00 0.00 65 1015.2
20260502112003 16 99 8.0 14.5 0.00 0.00 0.00 68 1015.4
20260502111504 16 119 1.6 9.7 0.00 0.00 0.00 68 1015.5
20260502111004 16 142 3.2 9.7 0.00 0.00 0.00 68 1015.7
20260502110504 16 163 4.8 11.3 0.00 0.00 0.00 66 1015.7
20260502110004 16 130 6.4 12.9 0.00 0.00 0.00 68 1015.8
20260502105503 16 186 4.8 14.5 0.00 0.00 0.00 69 1015.8
20260502105003 15 112 6.4 16.1 0.00 0.00 0.00 69 1015.9
20260502104503 15 202 4.8 9.7 0.00 0.00 0.00 68 1016.0
20260502104004 16 214 3.2 4.8 0.00 0.00 0.00 67 1015.9
20260502103504 16 215 3.2 8.0 0.00 0.00 0.00 66 1015.9
20260502103003 16 185 3.2 4.8 0.00 0.00 0.00 67 1016.0
20260502102504 16 181 6.4 11.3 0.00 0.00 0.00 67 1016.0
20260502102005 16 134 3.2 11.3 0.00 0.00 0.00 72 1016.0
20260502101504 15 114 8.0 12.9 0.00 0.00 0.00 70 1016.0
20260502101005 15 102 4.8 9.7 0.00 0.00 0.00 72 1016.1
20260502100504 15 134 6.4 11.3 0.00 0.00 0.00 73 1016.2
20260502091004 13 231 1.6 3.2 0.00 0.00 0.00 81 1016.4
20260502071003 9 233 0.0 1.6 0.00 0.00 0.00 91 1017.2
20260502070504 9 233 0.0 1.6 0.00 0.00 0.00 92 1017.2
20260502070004 8 201 0.0 1.6 0.00 0.00 0.00 93 1017.2
20260502065503 8 229 0.0 0.0 0.00 0.00 0.00 93 1017.2
20260502065005 8 229 0.0 0.0 0.00 0.00 0.00 93 1017.2
20260502064504 8 229 0.0 0.0 0.00 0.00 0.00 93 1017.3
20260502064003 8 229 0.0 0.0 0.00 0.00 0.00 94 1017.3
20260502063504 7 229 0.0 0.0 0.00 0.00 0.00 94 1017.3
20260502063004 7 229 0.0 0.0 0.00 0.00 0.00 94 1017.4
20260502062504 7 229 0.0 0.0 0.00 0.00 0.00 94 1017.4
20260502062004 7 229 0.0 0.0 0.00 0.00 0.00 94 1017.5
20260502061504 7 229 0.0 0.0 0.00 0.00 0.00 94 1017.5
20260502061004 6 229 0.0 0.0 0.00 0.00 0.00 94 1017.6
20260502060503 6 229 0.0 0.0 0.00 0.00 0.00 94 1017.6
20260502060004 6 229 0.0 0.0 0.00 0.00 0.00 93 1017.6
20260502055004 6 229 0.0 0.0 0.00 0.00 0.00 93 1017.5
20260502054503 6 229 0.0 0.0 0.00 0.00 0.00 92 1017.6
20260502054004 5 229 0.0 0.0 0.00 0.00 0.00 92 1017.6
20260502053504 5 229 0.0 0.0 0.00 0.00 0.00 92 1017.6
20260502053004 5 229 0.0 0.0 0.00 0.00 0.00 92 1017.6
20260502052504 5 229 0.0 0.0 0.00 0.00 0.00 91 1017.5
20260502052004 5 229 0.0 0.0 0.00 0.00 0.00 91 1017.5
20260502051504 5 229 0.0 0.0 0.00 0.00 0.00 91 1017.4
20260502051004 5 229 0.0 0.0 0.00 0.00 0.00 91 1017.4
20260502050504 5 229 0.0 0.0 0.00 0.00 0.00 91 1017.3
20260502050003 5 226 0.0 0.0 0.00 0.00 0.00 91 1017.2
20260502045504 5 226 0.0 0.0 0.00 0.00 0.00 91 1017.2
20260502044504 5 226 0.0 0.0 0.00 0.00 0.00 91 1017.2
20260502044004 5 226 0.0 0.0 0.00 0.00 0.00 91 1017.1
20260502043003 5 226 0.0 0.0 0.00 0.00 0.00 91 1017.1
20260502042503 5 226 0.0 0.0 0.00 0.00 0.00 91 1017.1
20260502042004 5 226 0.0 0.0 0.00 0.00 0.00 91 1017.2
20260502041503 5 226 0.0 0.0 0.00 0.00 0.00 91 1017.3
20260502041003 5 226 0.0 0.0 0.00 0.00 0.00 91 1017.3
20260502040504 5 226 0.0 0.0 0.00 0.00 0.00 91 1017.3
20260502040004 5 226 0.0 0.0 0.00 0.00 0.00 91 1017.3
20260502035503 5 226 1.6 1.6 0.00 0.00 0.00 90 1017.3
20260502035003 5 226 0.0 0.0 0.00 0.00 0.00 90 1017.4
20260502034004 5 226 0.0 1.6 0.00 0.00 0.00 90 1017.5
20260502033503 6 226 0.0 1.6 0.00 0.00 0.00 90 1017.6
20260502033004 6 226 0.0 1.6 0.00 0.00 0.00 90 1017.7
20260502032504 6 226 0.0 0.0 0.00 0.00 0.00 91 1017.7
20260502031504 6 226 0.0 0.0 0.00 0.00 0.00 90 1017.8
20260502031004 6 226 0.0 4.8 0.00 0.00 0.00 90 1017.9
20260502030503 6 226 1.6 3.2 0.00 0.00 0.00 90 1017.9
20260502030004 6 226 1.6 3.2 0.00 0.00 0.00 90 1017.9
20260502025503 6 226 0.0 0.0 0.00 0.00 0.00 90 1018.0
20260502025003 6 226 0.0 0.0 0.00 0.00 0.00 90 1018.0
20260502024503 6 226 0.0 0.0 0.00 0.00 0.00 90 1018.0
20260502024004 6 226 0.0 0.0 0.00 0.00 0.00 90 1018.0
20260502023503 6 226 0.0 1.6 0.00 0.00 0.00 90 1018.1
20260502022503 6 225 0.0 3.2 0.00 0.00 0.00 90 1018.2
20260502022003 6 225 0.0 3.2 0.00 0.00 0.00 90 1018.4
20260502021503 6 225 0.0 3.2 0.00 0.00 0.00 90 1018.4
20260502020504 6 225 3.2 4.8 0.00 0.00 0.00 90 1018.4
20260502020004 6 226 3.2 4.8 0.00 0.00 0.00 90 1018.4
20260502015504 6 226 0.0 1.6 0.00 0.00 0.00 89 1018.4
20260502014504 6 226 3.2 4.8 0.00 0.00 0.00 89 1018.5
20260502014004 6 226 0.0 3.2 0.00 0.00 0.00 89 1018.5
20260502013504 6 226 1.6 3.2 0.00 0.00 0.00 89 1018.5
20260502013005 7 226 0.0 0.0 0.00 0.00 0.00 89 1018.5
20260502012503 7 226 0.0 0.0 0.00 0.00 0.00 89 1018.5
20260502012003 7 226 0.0 0.0 0.00 0.00 0.00 89 1018.7
20260502011504 7 226 0.0 0.0 0.00 0.00 0.00 89 1018.6
20260502011004 7 226 0.0 0.0 0.00 0.00 0.00 89 1018.6
20260502010004 7 226 0.0 3.2 0.00 0.00 0.00 89 1018.7
20260502005504 7 226 3.2 4.8 0.00 0.00 0.00 89 1018.8
20260502005004 7 226 1.6 4.8 0.00 0.00 0.00 89 1018.9
20260502004504 7 226 3.2 4.8 0.00 0.00 0.00 89 1018.8
20260502004004 7 226 3.2 4.8 0.00 0.00 0.00 89 1018.9
20260502003004 7 226 0.0 0.0 0.00 0.00 0.00 88 1019.0
20260502002503 7 226 0.0 1.6 0.00 0.00 0.00 88 1019.1
20260502002003 8 226 0.0 1.6 0.00 0.00 0.00 88 1019.0
20260502000504 8 226 0.0 0.0 0.00 0.00 0.00 88 1019.0
20260502000004 8 226 0.0 0.0 0.00 0.00 0.00 88 1019.0
20260501235503 8 226 0.0 3.2 0.00 0.00 0.00 88 1019.0
20260501234504 8 226 0.0 3.2 0.00 0.00 0.00 89 1019.0
20260501234004 8 226 1.6 1.6 0.00 0.00 0.00 89 1019.1
20260501232503 9 226 3.2 4.8 0.00 0.00 0.00 89 1019.2
20260501232004 9 231 4.8 4.8 0.00 0.00 0.00 89 1019.3
20260501231003 9 235 3.2 4.8 0.00 0.00 0.00 89 1019.4
20260501230503 9 236 3.2 4.8 0.00 0.00 0.00 88 1019.5
20260501230004 9 236 0.0 1.6 0.00 0.00 0.00 88 1019.4
20260501225504 9 236 1.6 3.2 0.00 0.00 0.00 88 1019.4
20260501225004 9 236 1.6 4.8 0.00 0.00 0.00 88 1019.4
20260501224004 9 236 3.2 4.8 0.00 0.00 0.00 88 1019.4
20260501223504 9 236 4.8 8.0 0.00 0.00 0.00 88 1019.4
20260501223004 9 236 4.8 8.0 0.00 0.00 0.00 88 1019.4
20260501222504 9 242 3.2 4.8 0.00 0.00 0.00 88 1019.5
20260501222004 9 249 3.2 4.8 0.00 0.00 0.00 88 1019.5
20260501221503 9 250 3.2 4.8 0.00 0.00 0.00 88 1019.5
20260501221004 10 255 3.2 8.0 0.00 0.00 0.00 88 1019.5
20260501220504 10 253 3.2 4.8 0.00 0.00 0.00 87 1019.4
20260501215504 10 255 8.0 8.0 0.00 0.00 0.00 87 1019.5
20260501215004 10 249 4.8 11.3 0.00 0.00 0.00 87 1019.4
20260501214504 10 252 4.8 8.0 0.00 0.00 0.00 86 1019.4
20260501213504 10 262 3.2 4.8 0.00 0.00 0.00 86 1019.3
20260501213004 10 261 3.2 4.8 0.00 0.00 0.00 86 1019.3
20260501212004 10 257 3.2 4.8 0.00 0.00 0.00 84 1019.3
20260501211503 10 257 3.2 4.8 0.00 0.00 0.00 84 1019.3
20260501211003 10 257 3.2 4.8 0.00 0.00 0.00 84 1019.3
20260501210505 10 257 3.2 4.8 0.00 0.00 0.00 83 1019.3
20260501210003 10 257 3.2 4.8 0.00 0.00 0.00 83 1019.2
20260501205504 10 257 4.8 4.8 0.00 0.00 0.00 82 1019.3
20260501205004 10 253 3.2 4.8 0.00 0.00 0.00 82 1019.3
20260501204503 11 253 3.2 4.8 0.00 0.00 0.00 82 1019.2
20260501204004 11 253 3.2 4.8 0.00 0.00 0.00 81 1019.1
20260501203504 11 253 3.2 4.8 0.00 0.00 0.00 80 1019.1
20260501202503 11 251 1.6 3.2 0.00 0.00 0.00 81 1019.1
20260501202003 11 251 3.2 4.8 0.00 0.00 0.00 80 1019.0
20260501201503 11 252 1.6 4.8 0.00 0.00 0.00 79 1019.0
20260501201004 11 252 1.6 3.2 0.00 0.00 0.00 78 1019.0
20260501200503 12 252 1.6 3.2 0.00 0.00 0.00 78 1018.9
20260501200004 12 252 3.2 4.8 0.00 0.00 0.00 77 1018.9
20260501195004 12 253 3.2 4.8 0.00 0.00 0.00 75 1018.9
20260501194504 12 258 4.8 9.7 0.00 0.00 0.00 74 1018.9
20260501194003 12 264 3.2 9.7 0.00 0.00 0.00 74 1018.9
20260501193504 12 265 3.2 9.7 0.00 0.00 0.00 73 1018.9
20260501193004 13 266 3.2 4.8 0.00 0.00 0.00 72 1018.8
20260501192003 13 271 3.2 4.8 0.00 0.00 0.00 71 1018.7
20260501191004 13 271 3.2 4.8 0.00 0.00 0.00 70 1018.7
20260501190503 13 271 3.2 8.0 0.00 0.00 0.00 69 1018.7
20260501190003 14 243 4.8 4.8 0.00 0.00 0.00 69 1018.6
20260501185504 14 240 4.8 4.8 0.00 0.00 0.00 69 1018.6
20260501185005 14 237 3.2 4.8 0.00 0.00 0.00 68 1018.5
20260501184504 14 236 4.8 8.0 0.00 0.00 0.00 68 1018.5
20260501184004 15 230 4.8 9.7 0.00 0.00 0.00 67 1018.4
20260501183504 15 258 8.0 11.3 0.00 0.00 0.00 67 1018.5
20260501183003 15 268 8.0 14.5 0.00 0.00 0.00 67 1018.5
20260501182504 15 270 8.0 19.3 0.00 0.00 0.00 69 1018.5
20260501182004 15 245 9.7 14.5 0.00 0.00 0.00 68 1018.5
20260501181504 15 250 8.0 16.1 0.00 0.00 0.00 67 1018.5
20260501181003 15 276 6.4 14.5 0.00 0.00 0.00 67 1018.5
20260501180503 15 263 12.9 19.3 0.00 0.00 0.00 66 1018.5
20260501180004 15 278 11.3 20.9 0.00 0.00 0.00 66 1018.6
20260501175504 15 271 9.7 16.1 0.00 0.00 0.00 67 1018.6
20260501175004 15 259 8.0 11.3 0.00 0.00 0.00 67 1018.6
20260501174504 15 243 8.0 14.5 0.00 0.00 0.00 67 1018.6
20260501174003 15 262 11.3 19.3 0.00 0.00 0.00 67 1018.7
20260501173504 16 247 4.8 14.5 0.00 0.00 0.00 67 1018.7